1534795200.0,9213,22.94,74596.5,7.25,-12.79,-13.01,0,*4A
1534795201.22,9214,22.94,74594.0,7.17,-12.61,-12.93,0,*4F
1534795202.44,9215,22.94,74588.5,7.17,-12.39,-12.75,0,*4B
1534795203.68,9216,22.94,74594.5,7.19,-12.39,-12.65,0,*47
1534795204.88,9217,22.94,74590.8,7.21,-12.21,-12.47,0,*44
1534795206.14,9218,22.94,74586.0,7.21,-12.35,-12.71,0,*4B
1534795207.38,9219,22.94,74588.3,7.19,-12.53,-12.89,0,*46
1534795208.58,9220,22.94,74586.5,7.21,-12.47,-12.89,0,*42
1534795209.85,9221,22.94,74588.3,7.19,-12.35,-12.65,0,*4F
1534795211.1,9222,22.94,74590.8,7.21,-12.35,-12.75,0,*46
1534795212.31,9223,22.94,74590.8,7.25,-12.39,-12.65,0,*4E
1534795213.55,9224,22.94,74590.8,7.27,-12.39,-12.65,0,*4B
1534795214.8,9225,22.94,74592.3,7.25,-12.53,-12.83,0,*4C
1534795216.01,9226,22.94,74594.8,7.25,-12.43,-12.79,0,*4B
1534795217.24,9227,22.94,74586.5,7.25,-12.53,-12.93,0,*4F
1534795218.48,9228,22.94,74586.5,7.27,-12.57,-12.97,0,*42
1534795219.71,9229,22.94,74586.5,7.25,-12.39,-12.71,0,*41
1534795220.96,9230,22.94,74584.0,7.27,-12.29,-12.71,0,*4A
1534795222.21,9231,22.94,74588.5,7.27,-12.25,-12.53,0,*47
1534795223.46,9232,22.94,74590.3,7.27,-12.29,-12.57,0,*4C
1534795224.71,9233,22.94,74592.0,7.27,-12.43,-12.79,0,*4D
1534795225.95,9234,22.94,74590.8,7.27,-12.39,-12.79,0,*47
1534795227.18,9235,22.94,74588.5,7.29,-12.53,-12.93,0,*40
1534795228.4,9236,22.94,74590.5,7.29,-12.47,-12.79,0,*42
1534795229.63,9237,22.94,74586.3,7.29,-12.39,-12.75,0,*46
1534795230.85,9238,22.94,74588.0,7.29,-12.47,-12.79,0,*4C
1534795232.1,9239,22.94,74592.3,7.29,-12.53,-12.79,0,*48
1534795233.38,9240,22.94,74588.3,7.31,-12.53,-12.79,0,*4F
1534795234.6,9241,22.94,74588.3,7.29,-12.47,-12.79,0,*42
1534795235.83,9242,22.94,74588.8,7.29,-12.47,-12.75,0,*4D
1534795237.07,9243,22.94,74586.5,7.29,-12.35,-12.65,0,*48
1534795238.31,9244,22.94,74584.3,7.31,-12.39,-12.65,0,*4A
1534795239.54,9245,22.94,74584.8,7.31,-12.39,-12.65,0,*4B
1534795240.77,9246,22.94,74584.5,7.29,-12.39,-12.79,0,*4C
1534795242.01,9247,22.94,74588.8,7.31,-12.47,-12.79,0,*4D
1534795243.26,9248,22.94,74586.5,7.31,-12.39,-12.75,0,*47
1534795244.5,9249,22.94,74584.8,7.31,-12.39,-12.75,0,*46
1534795245.77,9250,22.94,74586.0,7.31,-12.35,-12.65,0,*43
1534795247.01,9251,22.94,74584.8,7.33,-12.35,-12.61,0,*44
1534795248.23,9252,22.94,74590.5,7.33,-12.43,-12.75,0,*43
1534795249.48,9253,22.94,74584.3,7.35,-12.39,-12.71,0,*4D
1534795250.73,9254,22.94,74584.3,7.35,-12.43,-12.83,0,*4A
1534795251.92,9255,22.94,74586.0,7.33,-12.47,-12.89,0,*43
1534795253.18,9256,22.94,74584.0,7.35,-12.29,-12.71,0,*49
1534795254.4,9257,22.94,74584.8,7.33,-12.29,-12.61,0,*4F
1534795255.65,9258,22.94,74588.8,7.33,-12.35,-12.61,0,*4D
1534795256.89,9259,22.94,74586.0,7.35,-12.39,-12.57,0,*43
1534795258.12,9260,22.94,74582.5,7.33,-12.47,-12.75,0,*46
1534795259.36,9261,22.94,74586.8,7.35,-12.39,-12.65,0,*49
1534795260.61,9262,22.94,74580.8,7.35,-12.39,-12.65,0,*4A
1534795261.81,9263,22.94,74584.5,7.33,-12.61,-12.93,0,*49
1534795263.05,9264,22.94,74582.8,7.33,-12.61,-13.01,0,*44
1534795264.32,9265,22.94,74584.0,7.35,-12.65,-13.01,0,*47
1534795265.58,9266,22.94,74580.3,7.35,-12.65,-13.01,0,*44
1534795266.84,9267,22.94,74588.3,7.35,-12.65,-13.01,0,*45
1534795268.06,9268,22.94,74584.0,7.33,-12.75,-13.15,0,*48
1534795269.29,9269,22.94,74582.3,7.33,-12.75,-13.07,0,*4A
1534795270.49,9270,22.94,74586.8,7.33,-12.89,-13.19,0,*4E
1534795271.71,9271,22.94,74588.3,7.33,-12.89,-13.29,0,*4C
1534795272.93,9272,22.94,74590.0,7.33,-12.83,-13.19,0,*46
1534795274.15,9273,22.94,74588.8,7.33,-12.65,-12.93,0,*4C
1534795275.4,9274,22.94,74588.8,7.35,-12.65,-12.97,0,*49
1534795276.64,9275,22.94,74590.0,7.35,-12.71,-13.11,0,*42
1534795277.87,9276,22.94,74592.8,7.33,-12.83,-13.19,0,*42
1534795279.09,9277,22.94,74592.5,7.33,-12.71,-13.07,0,*41
1534795280.34,9278,22.94,74592.0,7.35,-12.53,-12.89,0,*4F
1534795281.61,9279,22.94,74588.5,7.31,-12.35,-12.75,0,*49
1534795282.86,9280,22.94,74590.0,7.35,-12.29,-12.57,0,*46
1534795284.05,9281,22.94,74590.8,7.33,-12.43,-12.89,0,*4E
1534795285.27,9282,22.94,74590.3,7.33,-12.57,-12.89,0,*48
1534795286.52,9283,22.94,74592.3,7.35,-12.53,-12.89,0,*4B
1534795287.75,9284,22.94,74588.3,7.33,-12.57,-12.93,0,*45
1534795289.02,9285,22.94,74590.3,7.35,-12.57,-12.83,0,*43
1534795290.26,9286,22.94,74594.0,7.35,-12.57,-12.97,0,*45
1534795291.48,9287,22.94,74594.0,7.33,-12.57,-12.93,0,*46
1534795292.76,9288,22.94,74590.3,7.35,-12.53,-12.83,0,*4A
1534795294.03,9289,22.94,74594.3,7.35,-12.53,-12.79,0,*4E
1534795295.28,9290,22.94,74590.5,7.35,-12.29,-12.79,0,*4B
1534795296.53,9291,22.94,74588.8,7.35,-12.39,-12.71,0,*43
1534795297.8,9292,22.94,74590.8,7.35,-12.57,-12.83,0,*45
1534795299.03,9293,22.94,74590.3,7.37,-12.53,-12.89,0,*48
1534795300.25,9294,22.94,74594.8,7.37,-12.39,-12.79,0,*4C
1534795301.49,9295,22.88,74590.8,7.35,-12.43,-12.83,0,*47
1534795302.76,9296,22.94,74588.5,7.35,-12.57,-12.83,0,*41
1534795304.01,9297,22.94,74588.5,7.35,-12.57,-12.97,0,*45
1534795305.26,9298,22.94,74586.8,7.35,-12.57,-12.97,0,*4A
1534795306.48,9299,22.94,74584.8,7.37,-12.65,-12.97,0,*48
1534795307.7,9300,22.94,74584.3,7.37,-12.71,-12.97,0,*4C
1534795308.92,9301,22.88,74586.5,7.37,-12.65,-13.11,0,*47
1534795310.14,9302,22.94,74590.0,7.37,-12.71,-13.15,0,*45
1534795311.38,9303,22.94,74590.5,7.35,-12.83,-13.11,0,*4F
1534795312.62,9304,22.94,74592.3,7.35,-12.79,-13.15,0,*49
1534795313.85,9305,22.94,74590.3,7.33,-12.83,-13.19,0,*47
1534795315.09,9306,22.94,74592.0,7.35,-12.71,-13.11,0,*47
1534795316.33,9307,22.94,74584.5,7.35,-12.83,-13.15,0,*4F
1534795317.57,9308,22.94,74586.5,7.35,-12.71,-13.15,0,*4D
1534795318.81,9309,22.94,74584.3,7.35,-12.79,-13.15,0,*44
1534795320.05,9310,22.94,74590.5,7.35,-12.79,-13.15,0,*4C
1534795321.3,9311,22.88,74584.3,7.35,-12.57,-12.89,0,*45
1534795322.52,9312,22.94,74584.0,7.33,-12.61,-12.89,0,*45
1534795323.76,9313,22.94,74584.8,7.35,-12.57,-12.89,0,*47
1534795325.01,9314,22.94,74586.8,7.35,-12.53,-12.89,0,*44
1534795326.23,9315,22.94,74588.5,7.37,-12.57,-12.97,0,*4C
1534795327.48,9316,22.94,74590.5,7.35,-12.65,-12.97,0,*4C
1534795328.72,9317,22.94,74590.3,7.35,-12.65,-12.97,0,*4D
1534795329.97,9318,22.94,74588.5,7.35,-12.57,-12.97,0,*43
1534795331.24,9319,22.94,74590.5,7.35,-12.53,-12.83,0,*43
1534795332.49,9320,22.94,74584.8,7.35,-12.29,-12.65,0,*4C
1534795333.74,9321,22.94,74590.0,7.35,-12.29,-12.71,0,*48
1534795334.99,9322,22.94,74588.0,7.35,-12.43,-12.79,0,*4F
1534795336.23,9323,22.94,74588.8,7.35,-12.57,-12.97,0,*4B
1534795337.46,9324,22.94,74586.0,7.37,-12.57,-12.97,0,*4E
1534795338.68,9325,22.94,74588.5,7.37,-12.57,-12.97,0,*4F
1534795339.9,9326,22.94,74584.0,7.37,-12.57,-12.97,0,*4C
1534795341.14,9327,22.94,74586.5,7.37,-12.71,-13.01,0,*47
1534795342.36,9328,22.88,74580.5,7.37,-12.65,-13.11,0,*4C
1534795343.58,9329,22.94,74586.5,7.37,-12.83,-13.23,0,*44
1534795344.82,9330,22.94,74586.5,7.37,-12.83,-13.29,0,*46
1534795346.04,9331,22.94,74584.5,7.35,-12.89,-13.23,0,*45
1534795347.28,9332,22.94,74586.5,7.35,-12.83,-13.23,0,*4C
1534795348.53,9333,22.88,74582.5,7.35,-12.83,-13.23,0,*4D
1534795349.75,9334,22.94,74588.3,7.35,-12.89,-13.23,0,*40
1534795350.96,9335,22.94,74586.0,7.37,-12.89,-13.29,0,*49
1534795352.19,9336,22.94,74584.8,7.37,-12.97,-13.29,0,*45
1534795353.43,9337,22.88,74586.5,7.35,-12.79,-13.11,0,*4D
1534795354.67,9338,22.88,74584.3,7.35,-12.83,-13.15,0,*43
1534795355.93,9339,22.88,74586.0,7.35,-12.79,-13.29,0,*48
1534795357.15,9340,22.88,74584.8,7.33,-12.89,-13.29,0,*4F
1534795358.4,9341,22.94,74588.5,7.35,-12.71,-13.11,0,*44
1534795359.64,9342,22.88,74586.3,7.35,-12.83,-13.23,0,*4B
1534795360.88,9343,22.88,74584.0,7.35,-12.83,-13.23,0,*4A
1534795362.1,9344,22.94,74586.5,7.33,-13.01,-13.43,0,*46
1534795363.32,9345,22.94,74588.0,7.33,-13.01,-13.43,0,*47
1534795364.56,9346,22.94,74588.8,7.35,-12.89,-13.37,0,*40
1534795365.75,9347,22.88,74586.5,7.33,-12.93,-13.43,0,*4F
1534795367.0,9348,22.94,74588.8,7.33,-13.01,-13.33,0,*4D
1534795368.24,9349,22.94,74588.3,7.31,-13.07,-13.37,0,*4C
1534795369.48,9350,22.94,74590.8,7.31,-12.97,-13.37,0,*4C
1534795370.69,9351,22.88,74588.3,7.31,-13.07,-13.47,0,*42
1534795371.91,9352,22.88,74588.8,7.33,-12.83,-13.19,0,*45
1534795373.14,9353,22.88,74590.8,7.33,-12.89,-13.33,0,*46
1534795374.35,9354,22.94,74590.5,7.31,-12.97,-13.47,0,*4F
1534795375.55,9355,22.94,74590.3,7.31,-13.07,-13.47,0,*46
1534795376.8,9356,22.94,74592.0,7.31,-12.97,-13.37,0,*4A
1534795378.02,9357,22.94,74592.0,7.29,-13.07,-13.37,0,*4A
1534795379.26,9358,22.88,74594.5,7.31,-12.97,-13.37,0,*44
1534795380.47,9359,22.94,74594.3,7.31,-12.89,-13.11,0,*4E
1534795381.72,9360,22.94,74590.5,7.31,-12.75,-13.19,0,*4F
1534795382.95,9361,22.88,74588.3,7.29,-12.75,-13.11,0,*4F
1534795384.19,9362,22.88,74590.0,7.31,-12.75,-13.11,0,*45
1534795385.44,9363,22.88,74590.3,7.31,-12.75,-13.11,0,*44
1534795386.68,9364,22.88,74590.3,7.31,-12.65,-13.07,0,*45
1534795387.92,9365,22.88,74590.8,7.31,-12.61,-12.97,0,*48
1534795389.13,9366,22.88,74590.5,7.29,-12.61,-13.07,0,*4A
1534795390.37,9367,22.88,74594.8,7.31,-12.61,-12.97,0,*4A
1534795391.61,9368,22.94,74592.3,7.31,-12.65,-13.07,0,*49
1534795392.85,9369,22.88,74590.5,7.33,-12.61,-13.01,0,*48
1534795394.07,9370,22.88,74586.5,7.33,-12.71,-13.07,0,*47
1534795395.29,9371,22.88,74588.5,7.33,-12.89,-13.33,0,*46
1534795396.49,9372,22.88,74588.3,7.33,-12.89,-13.19,0,*4D
1534795397.71,9373,22.94,74590.5,7.31,-12.89,-13.23,0,*47
1534795398.96,9374,22.88,74586.8,7.31,-12.75,-13.19,0,*4A
1534795400.2,9375,22.88,74584.3,7.31,-12.93,-13.33,0,*4B
1534795401.45,9376,22.94,74586.8,7.31,-12.93,-13.37,0,*4C
1534795402.69,9377,22.88,74586.5,7.31,-12.89,-13.33,0,*42
1534795403.93,9378,22.88,74590.0,7.31,-12.93,-13.33,0,*46
1534795405.15,9379,22.88,74588.5,7.29,-12.89,-13.33,0,*45
1534795406.35,9380,22.88,74590.8,7.29,-12.89,-13.23,0,*42
1534795407.6,9381,22.88,74592.3,7.31,-12.79,-13.19,0,*4C
1534795408.82,9382,22.88,74592.3,7.29,-12.79,-13.23,0,*4F
1534795410.04,9383,22.88,74594.0,7.29,-12.79,-13.23,0,*4E
1534795411.29,9384,22.88,74590.0,7.31,-12.75,-13.11,0,*4D
1534795412.5,9385,22.88,74588.3,7.31,-12.89,-13.23,0,*4E
1534795413.74,9386,22.88,74588.5,7.29,-12.75,-13.19,0,*4E
1534795414.97,9387,22.88,74590.5,7.29,-12.75,-13.19,0,*4F
1534795416.19,9388,22.94,74594.0,7.29,-12.75,-13.11,0,*48
1534795417.43,9389,22.88,74594.3,7.31,-12.93,-13.33,0,*48
1534795418.68,9390,22.94,74598.0,7.31,-12.75,-13.23,0,*49
1534795419.9,9391,22.88,74594.5,7.29,-12.65,-13.07,0,*46
1534795421.12,9392,22.88,74596.0,7.29,-12.53,-12.93,0,*4C
1534795422.37,9393,22.88,74590.5,7.31,-12.53,-12.89,0,*4F
1534795423.61,9394,22.94,74588.0,7.31,-12.65,-13.07,0,*4A
1534795424.83,9395,22.88,74590.0,7.29,-12.65,-13.11,0,*45
1534795426.05,9396,22.88,74588.5,7.29,-12.65,-13.11,0,*46
1534795427.27,9397,22.88,74590.5,7.29,-12.61,-13.11,0,*43
1534795428.51,9398,22.88,74592.0,7.31,-12.65,-12.97,0,*4E
1534795429.75,9399,22.88,74590.5,7.31,-12.65,-12.97,0,*4F
1534795430.99,9400,22.88,74588.5,7.31,-12.61,-12.97,0,*4C
1534795432.24,9401,22.88,74590.8,7.31,-12.53,-12.93,0,*48
1534795433.44,9402,22.88,74586.5,7.33,-12.47,-12.89,0,*47
1534795434.69,9403,22.94,74588.5,7.31,-12.53,-12.93,0,*4A
1534795435.93,9404,22.88,74586.5,7.31,-12.53,-12.93,0,*4D
1534795437.15,9405,22.88,74586.5,7.31,-12.47,-12.89,0,*42
1534795438.37,9406,22.88,74588.3,7.33,-12.47,-12.83,0,*49
1534795439.6,9407,22.88,74590.5,7.33,-12.57,-12.89,0,*43
1534795440.82,9408,22.88,74588.0,7.33,-12.53,-12.89,0,*48
1534795442.02,9409,22.88,74584.0,7.33,-12.47,-12.93,0,*47
1534795443.25,9410,22.88,74586.8,7.33,-12.57,-12.93,0,*4E
1534795444.49,9411,22.88,74586.0,7.35,-12.39,-12.79,0,*45
1534795445.74,9412,22.88,74584.3,7.35,-12.57,-12.97,0,*4E
1534795446.99,9413,22.94,74590.0,7.35,-12.53,-12.97,0,*4B
1534795448.23,9414,22.88,74584.0,7.35,-12.53,-12.89,0,*43
1534795449.48,9415,22.88,74584.0,7.35,-12.53,-12.97,0,*4D
1534795450.73,9416,22.88,74586.5,7.35,-12.53,-12.97,0,*4E
1534795451.98,9417,22.88,74588.8,7.35,-12.57,-12.97,0,*4B
1534795453.22,9418,22.88,74586.0,7.33,-12.61,-13.01,0,*49
1534795454.46,9419,22.94,74590.8,7.35,-12.57,-12.89,0,*4A
1534795455.7,9420,22.88,74586.0,7.33,-12.61,-13.01,0,*42
1534795456.92,9421,22.88,74586.8,7.33,-12.71,-13.15,0,*47
1534795458.14,9422,22.88,74586.5,7.33,-12.71,-13.07,0,*47
1534795459.4,9423,22.88,74586.0,7.35,-12.65,-13.01,0,*43
1534795460.67,9424,22.88,74584.5,7.35,-12.65,-13.01,0,*44
1534795461.89,9425,22.88,74582.8,7.33,-12.71,-13.15,0,*43
1534795463.1,9426,22.88,74584.5,7.33,-12.65,-13.07,0,*46
1534795464.37,9427,22.88,74582.0,7.35,-12.57,-13.01,0,*46
1534795465.62,9428,22.88,74584.3,7.35,-12.53,-12.89,0,*4C
1534795466.87,9429,22.88,74584.8,7.35,-12.53,-12.97,0,*42
1534795468.11,9430,22.88,74584.8,7.33,-12.57,-13.01,0,*46
1534795469.35,9431,22.88,74584.8,7.35,-12.65,-12.97,0,*4E
1534795470.62,9432,22.88,74586.0,7.35,-12.65,-13.01,0,*43
1534795471.88,9433,22.88,74584.0,7.35,-12.57,-13.01,0,*43
1534795473.15,9434,22.88,74584.8,7.35,-12.57,-13.01,0,*44
1534795474.36,9435,22.88,74586.5,7.33,-12.61,-13.07,0,*40
1534795475.63,9436,22.88,74584.3,7.35,-12.57,-13.01,0,*46
1534795476.87,9437,22.88,74580.5,7.35,-12.65,-13.11,0,*47
1534795478.11,9438,22.88,74584.8,7.37,-12.65,-13.01,0,*4B
1534795479.37,9439,22.88,74580.5,7.35,-12.65,-13.01,0,*48
1534795480.59,9440,22.88,74584.0,7.33,-12.71,-13.07,0,*43
1534795481.86,9441,22.88,74582.8,7.35,-12.57,-13.01,0,*46
1534795483.1,9442,22.88,74582.5,7.35,-12.65,-13.11,0,*45
1534795484.34,9443,22.88,74580.0,7.35,-12.79,-13.15,0,*4D
1534795485.61,9444,22.88,74582.8,7.35,-12.71,-13.01,0,*47
1534795486.82,9445,22.88,74582.8,7.33,-12.71,-13.07,0,*46
1534795488.07,9446,22.88,74586.0,7.35,-12.71,-13.11,0,*44
1534795489.31,9447,22.88,74586.5,7.35,-12.71,-13.15,0,*41
1534795490.53,9448,22.88,74584.8,7.37,-12.79,-13.23,0,*41
1534795491.77,9449,22.88,74590.0,7.35,-12.79,-13.15,0,*47
1534795493.01,9450,22.88,74590.0,7.35,-12.71,-13.15,0,*47
1534795494.24,9451,22.88,74588.5,7.33,-12.75,-13.19,0,*48
1534795495.46,9452,22.88,74584.3,7.33,-12.75,-13.15,0,*47
1534795496.7,9453,22.88,74588.3,7.35,-12.79,-13.15,0,*4C
1534795497.92,9454,22.88,74588.3,7.33,-12.71,-13.15,0,*45
1534795499.16,9455,22.88,74590.0,7.35,-12.83,-13.15,0,*4F
1534795500.36,9456,22.88,74590.5,7.33,-12.89,-13.19,0,*4C
1534795501.63,9457,22.88,74588.3,7.35,-12.65,-13.01,0,*40
1534795502.86,9458,22.88,74588.3,7.33,-12.71,-13.19,0,*45
1534795504.09,9459,22.88,74588.8,7.35,-12.83,-13.15,0,*43
1534795505.29,9460,22.88,74588.3,7.33,-12.89,-13.19,0,*49
1534795506.54,9461,22.94,74594.5,7.35,-12.83,-13.23,0,*4D
1534795507.73,9462,22.88,74590.5,7.33,-12.93,-13.43,0,*4F
1534795508.95,9463,22.88,74586.8,7.33,-12.89,-13.29,0,*49
1534795510.17,9464,22.88,74592.3,7.33,-12.89,-13.33,0,*45
1534795511.41,9465,22.88,74590.5,7.35,-12.65,-13.11,0,*40
1534795512.63,9466,22.88,74590.3,7.33,-12.61,-13.07,0,*46
1534795513.82,9467,22.88,74590.0,7.37,-12.43,-12.97,0,*4B
1534795515.06,9468,22.88,74590.3,7.33,-12.61,-13.01,0,*4E
1534795516.28,9469,22.88,74590.3,7.33,-12.61,-13.07,0,*49
1534795517.49,9470,22.88,74590.0,7.33,-12.61,-13.07,0,*41
1534795518.71,9471,22.88,74590.8,7.33,-12.61,-12.93,0,*4C
1534795519.95,9472,22.88,74592.5,7.33,-12.57,-13.01,0,*40
1534795521.17,9473,22.88,74594.3,7.33,-12.61,-12.93,0,*4E
1534795522.42,9474,22.88,74590.5,7.33,-12.57,-13.01,0,*46
1534795523.64,9475,22.88,74590.8,7.33,-12.71,-13.19,0,*4A
1534795524.87,9476,22.88,74586.3,7.33,-12.75,-13.19,0,*4D
1534795526.09,9477,22.88,74590.5,7.33,-12.71,-13.07,0,*47
1534795527.34,9478,22.88,74588.5,7.35,-12.71,-13.23,0,*48
1534795528.56,9479,22.88,74586.0,7.33,-12.93,-13.33,0,*42
1534795529.78,9480,22.88,74588.3,7.33,-12.89,-13.29,0,*44
1534795531.0,9481,22.88,74584.3,7.33,-12.89,-13.29,0,*45
1534795532.24,9482,22.88,74584.3,7.33,-12.83,-13.29,0,*4C
1534795533.46,9483,22.88,74586.0,7.33,-12.89,-13.29,0,*47
1534795534.68,9484,22.88,74582.0,7.33,-12.71,-13.07,0,*4B
1534795535.92,9485,22.88,74584.8,7.35,-12.71,-13.11,0,*4B
1534795537.16,9486,22.88,74584.8,7.31,-12.89,-13.33,0,*4B
1534795538.38,9487,22.88,74584.0,7.31,-12.89,-13.23,0,*4B
1534795539.62,9488,22.88,74586.0,7.31,-12.93,-13.37,0,*4A
1534795540.84,9489,22.88,74586.8,7.31,-12.89,-13.23,0,*45
1534795542.06,9490,22.88,74588.0,7.31,-12.93,-13.23,0,*46
1534795543.28,9491,22.88,74586.0,7.31,-12.89,-13.23,0,*4C
1534795544.52,9492,22.88,74588.5,7.31,-12.79,-13.19,0,*49
1534795545.77,9493,22.88,74588.0,7.31,-12.79,-13.19,0,*48
1534795547.0,9494,22.88,74586.0,7.29,-12.79,-13.23,0,*4F
1534795548.24,9495,22.88,74586.8,7.31,-12.75,-13.11,0,*4A
1534795549.49,9496,22.88,74588.5,7.31,-12.79,-13.19,0,*4D
1534795550.73,9497,22.88,74588.5,7.31,-12.75,-13.11,0,*48
1534795551.97,9498,22.88,74592.3,7.31,-12.65,-13.07,0,*41
1534795553.21,9499,22.88,74590.8,7.31,-12.65,-12.97,0,*48
1534795554.43,9500,22.88,74590.0,7.31,-12.47,-12.93,0,*4D
1534795555.67,9501,22.88,74592.0,7.33,-12.57,-13.01,0,*45
1534795556.92,9502,22.88,74596.8,7.31,-12.53,-12.97,0,*4E
1534795558.16,9503,22.88,74592.3,7.31,-12.65,-13.07,0,*42
1534795559.4,9504,22.88,74594.3,7.31,-12.65,-13.07,0,*45
1534795560.64,9505,22.88,74590.0,7.31,-12.61,-12.97,0,*48
1534795561.87,9506,22.88,74588.8,7.31,-12.65,-13.07,0,*47
1534795563.09,9507,22.88,74588.3,7.31,-12.47,-12.97,0,*4E
1534795564.34,9508,22.88,74592.0,7.31,-12.53,-13.07,0,*4C
1534795565.56,9509,22.88,74588.5,7.33,-12.57,-12.93,0,*47
1534795566.81,9510,22.88,74588.0,7.35,-12.57,-12.97,0,*4D
1534795568.07,9511,22.88,74590.8,7.35,-12.71,-13.01,0,*46
1534795569.3,9512,22.88,74588.0,7.33,-12.75,-13.19,0,*4E
1534795570.56,9513,22.88,74592.5,7.35,-12.83,-13.29,0,*43
1534795571.81,9514,22.88,74592.8,7.33,-12.83,-13.33,0,*49
1534795573.03,9515,22.88,74590.8,7.33,-12.83,-13.19,0,*40
1534795574.25,9516,22.88,74592.0,7.33,-12.89,-13.29,0,*4A
1534795575.47,9517,22.88,74592.8,7.33,-12.89,-13.29,0,*4B
1534795576.71,9518,22.88,74594.8,7.31,-12.75,-13.11,0,*4E
1534795577.96,9519,22.88,74594.8,7.31,-12.79,-13.19,0,*4B
1534795579.2,9520,22.88,74592.0,7.31,-12.79,-13.23,0,*48
1534795580.45,9521,22.88,74592.0,7.31,-12.75,-13.11,0,*44
1534795581.69,9522,22.88,74592.0,7.31,-12.65,-13.11,0,*46
1534795582.93,9523,22.88,74590.3,7.31,-12.75,-13.11,0,*46
1534795584.18,9524,22.88,74594.8,7.31,-12.75,-13.11,0,*41
1534795585.4,9525,22.88,74594.8,7.29,-12.53,-12.97,0,*42
1534795586.64,9526,22.88,74590.0,7.31,-12.79,-13.11,0,*4F
1534795587.86,9527,22.88,74588.3,7.33,-12.89,-13.29,0,*48
1534795589.08,9528,22.88,74590.8,7.33,-12.83,-13.15,0,*42
1534795590.3,9529,22.88,74586.8,7.33,-12.83,-13.19,0,*4F
1534795591.55,9530,22.88,74586.8,7.31,-12.75,-13.19,0,*4C
1534795592.8,9531,22.88,74588.5,7.31,-12.93,-13.37,0,*49
1534795594.02,9532,22.88,74584.8,7.29,-12.93,-13.37,0,*43
1534795595.26,9533,22.88,74586.5,7.31,-12.93,-13.33,0,*4F
1534795596.5,9534,22.88,74584.3,7.31,-12.89,-13.33,0,*43
1534795597.72,9535,22.88,74584.3,7.31,-12.93,-13.23,0,*48
1534795598.94,9536,22.88,74584.8,7.31,-12.89,-13.23,0,*40
1534795600.17,9537,22.88,74582.0,7.29,-12.79,-13.19,0,*4E
1534795601.39,9538,22.88,74580.8,7.31,-12.93,-13.23,0,*45
1534795602.61,9539,22.88,74584.3,7.29,-12.93,-13.33,0,*4C
1534795603.85,9540,22.88,74586.8,7.31,-12.89,-13.33,0,*40
1534795605.05,9541,22.88,74584.8,7.29,-12.93,-13.23,0,*42
1534795606.25,9542,22.88,74584.3,7.29,-12.93,-13.23,0,*41
1534795607.45,9543,22.88,74580.0,7.29,-12.89,-13.23,0,*4B
1534795608.68,9544,22.88,74584.3,7.29,-12.79,-13.19,0,*4A
1534795609.9,9545,22.88,74584.3,7.29,-12.75,-13.11,0,*4F
1534795611.12,9546,22.88,74582.0,7.29,-12.79,-13.23,0,*41
1534795612.37,9547,22.88,74588.3,7.31,-12.75,-13.11,0,*44
1534795613.6,9548,22.88,74590.0,7.29,-12.75,-13.19,0,*4A
1534795614.82,9549,22.88,74584.3,7.29,-12.79,-13.23,0,*4E
1534795616.05,9550,22.88,74590.8,7.29,-12.79,-13.19,0,*4F
1534795617.27,9551,22.88,74590.5,7.29,-12.79,-13.23,0,*47
1534795618.46,9552,22.88,74590.3,7.29,-12.89,-13.23,0,*4B
1534795619.69,9553,22.88,74588.5,7.31,-12.93,-13.23,0,*48
1534795620.91,9554,22.88,74590.8,7.29,-12.89,-13.33,0,*4C
1534795622.13,9555,22.88,74592.5,7.29,-12.79,-13.23,0,*43
1534795623.35,9556,22.88,74592.8,7.29,-12.93,-13.33,0,*45
1534795624.6,9557,22.88,74590.5,7.31,-12.75,-13.23,0,*44
1534795625.82,9558,22.88,74594.0,7.29,-12.75,-13.23,0,*42
1534795627.05,9559,22.88,74590.5,7.29,-12.75,-13.11,0,*42
1534795628.28,9560,22.88,74594.3,7.31,-12.61,-13.07,0,*43
1534795629.5,9561,22.88,74592.0,7.29,-12.61,-13.07,0,*4B
1534795630.72,9562,22.88,74590.3,7.29,-12.65,-12.97,0,*44
1534795631.96,9563,22.88,74592.0,7.31,-12.65,-13.07,0,*44
1534795633.18,9564,22.88,74588.5,7.29,-12.65,-12.97,0,*42
1534795634.44,9565,22.88,74590.0,7.27,-12.57,-13.01,0,*42
1534795635.67,9566,22.88,74592.0,7.29,-12.53,-12.93,0,*41
1534795636.89,9567,22.88,74594.0,7.29,-12.53,-13.07,0,*4C
1534795638.13,9568,22.88,74590.3,7.31,-12.65,-13.07,0,*4F
1534795639.36,9569,22.88,74590.8,7.29,-12.53,-12.89,0,*45
1534795640.55,9570,22.88,74588.5,7.29,-12.39,-12.89,0,*41
1534795641.78,9571,22.88,74590.3,7.29,-12.39,-12.79,0,*4F
1534795643.05,9572,22.88,74592.0,7.31,-12.35,-12.79,0,*49
1534795644.26,9573,22.88,74594.0,7.31,-12.39,-12.89,0,*4B
1534795645.51,9574,22.88,74588.0,7.31,-12.53,-12.93,0,*4B
1534795646.74,9575,22.88,74590.3,7.29,-12.53,-12.93,0,*43
1534795647.96,9576,22.88,74590.8,7.31,-12.47,-12.93,0,*4C
1534795649.2,9577,22.88,74590.3,7.31,-12.61,-12.93,0,*49
1534795650.42,9578,22.88,74588.5,7.29,-12.65,-13.07,0,*47
1534795651.66,9579,22.88,74590.8,7.31,-12.53,-12.93,0,*46
1534795652.9,9580,22.88,74590.0,7.31,-12.61,-12.97,0,*45
1534795654.1,9581,22.88,74588.3,7.33,-12.47,-12.89,0,*4D
1534795655.35,9582,22.88,74590.0,7.35,-12.39,-12.79,0,*4E
1534795656.57,9583,22.88,74586.5,7.33,-12.43,-12.83,0,*41
1534795657.82,9584,22.88,74586.0,7.33,-12.35,-12.75,0,*4E
1534795659.04,9585,22.88,74586.8,7.33,-12.47,-12.83,0,*43
1534795660.28,9586,22.88,74586.5,7.33,-12.57,-13.01,0,*4A
1534795661.52,9587,22.88,74580.5,7.33,-12.61,-13.01,0,*4E
1534795662.74,9588,22.88,74582.5,7.37,-12.57,-12.97,0,*4E
1534795663.99,9589,22.88,74582.5,7.35,-12.57,-12.97,0,*4D
1534795665.25,9590,22.88,74580.5,7.35,-12.83,-13.29,0,*48
1534795666.47,9591,22.88,74576.3,7.33,-12.83,-13.23,0,*45
1534795667.69,9592,22.88,74582.8,7.33,-12.89,-13.29,0,*46
1534795668.9,9593,22.88,74584.3,7.33,-12.83,-13.15,0,*42
1534795670.14,9594,22.88,74584.0,7.35,-12.71,-13.15,0,*4E
1534795671.39,9595,22.88,74588.0,7.31,-12.75,-13.11,0,*4B
1534795672.6,9596,22.88,74584.3,7.31,-12.89,-13.11,0,*4B
1534795673.82,9597,22.88,74590.0,7.33,-12.75,-13.15,0,*4F
1534795675.04,9598,22.88,74590.3,7.33,-12.83,-13.15,0,*49
1534795676.28,9599,22.88,74586.0,7.35,-12.79,-13.15,0,*4B
1534795677.5,9600,22.88,74584.3,7.33,-12.71,-13.07,0,*45
1534795678.71,9601,22.88,74584.3,7.33,-12.83,-13.07,0,*49
1534795679.93,9602,22.88,74588.3,7.33,-12.71,-13.07,0,*47
1534795681.15,9603,22.88,74590.3,7.33,-12.71,-13.07,0,*46
1534795682.37,9604,22.88,74590.5,7.33,-12.71,-13.07,0,*41
1534795683.59,9605,22.88,74594.0,7.33,-12.61,-12.93,0,*4D
1534795684.84,9606,22.88,74596.0,7.35,-12.53,-12.89,0,*42
1534795686.06,9607,22.88,74586.0,7.33,-12.61,-12.93,0,*4F
1534795687.3,9608,22.88,74586.8,7.33,-12.57,-13.01,0,*4F
1534795688.51,9609,22.88,74586.3,7.33,-12.61,-13.07,0,*4D
1534795689.74,9610,22.88,74584.3,7.33,-12.57,-12.93,0,*4C
1534795690.98,9611,22.88,74586.8,7.33,-12.57,-13.01,0,*47
1534795692.22,9612,22.88,74586.3,7.33,-12.71,-13.01,0,*40
1534795693.49,9613,22.88,74586.8,7.35,-12.57,-13.01,0,*43
1534795694.71,9614,22.88,74590.5,7.33,-12.71,-13.07,0,*40
1534795695.93,9615,22.88,74588.5,7.33,-12.83,-13.19,0,*43
1534795697.15,9616,22.88,74588.0,7.33,-12.71,-13.07,0,*42
1534795698.39,9617,22.88,74586.0,7.33,-12.61,-13.01,0,*44
1534795699.63,9618,22.88,74584.0,7.33,-12.61,-13.01,0,*4B
1534795700.84,9619,22.88,74590.0,7.33,-12.71,-13.07,0,*4D
1534795702.06,9620,22.88,74586.0,7.33,-12.71,-13.07,0,*47
1534795703.31,9621,22.88,74590.5,7.35,-12.39,-12.79,0,*44
1534795704.53,9622,22.88,74582.5,7.33,-12.43,-12.79,0,*4C
1534795705.78,9623,22.88,74586.3,7.35,-12.29,-12.71,0,*4F
1534795707.05,9624,22.88,74586.8,7.35,-12.53,-13.01,0,*43
1534795708.3,9625,22.88,74580.8,7.35,-12.65,-12.97,0,*49
1534795709.52,9626,22.81,74580.8,7.33,-12.75,-13.15,0,*46